Weather History for Aswan, Egypt

Change the Weather History Date:

Monday, March 11, 2013

  Actual Average Record
Temperature  
Mean Temperature 76 °F -  
Max Temperature 92 °F 86 °F 105 °F (2012)
Min Temperature 59 °F 61 °F 35 °F (2005)
Cooling Degree Days 10    
Growing Degree Days 26 (Base 50)    
Moisture  
Dew Point 39 °F    
Average Humidity 27    
Maximum Humidity 51    
Minimum Humidity 11    
Precipitation  
Precipitation 0.00 in 0.00 in - ()
Sea Level Pressure  
Sea Level Pressure 29.99 in    
Wind  
Wind Speed 7 mph ()    
Max Wind Speed 13 mph    
Max Gust Speed -    
Visibility 6.0 miles    
Events      
Averages and records for this station are not official NWS values.
T = Trace of Precipitation, MM = Missing Value Source: Averaged Metar Reports

Daily Weather History Graph

Daily Weather History Graph

Search for Another Location

Airport:

Trip Planner

Search our weather history database for the weather conditions in past years. The results will help you decide how hot, cold, wet, or windy it might be!

Date:

Astronomy

Mar. 11, 2013 Rise Set
Actual Time 6:01 AM EET 5:56 PM EET
Civil Twilight 5:39 AM EET 6:18 PM EET
Nautical Twilight 5:12 AM EET 6:45 PM EET
Astronomical Twilight 4:46 AM EET 7:11 PM EET
Moon 5:24 AM EET (3/11) 5:42 PM EET (3/11)
Length of Visible Light 12h 39m
Length of Day
11h 54m
Waning Crescent, 0% of the Moon is Illuminated
Mar 11
Waning Crescent
Mar 11
New
Mar 19
First Quarter
Mar 27
Full
Apr 3
Last Quarter

Hourly Weather History & Observations

Time (EET) Temp. Dew Point Humidity Pressure Visibility Wind Dir Wind Speed Gust Speed Precip Events Conditions
12:00 AM 68.0 °F 35.6 °F 30% 30.04 in - North 10.4 mph - N/A   Clear
1:00 AM 66.2 °F 35.6 °F 32% 30.04 in - North 10.4 mph - N/A   Clear
2:00 AM 64 °F 38 °F 26% 30.02 in 6 mi North 6.9 mph - -  
2:00 AM 64.4 °F 37.4 °F 37% 30.01 in - North 6.9 mph - N/A   Clear
3:00 AM 62.6 °F 37.4 °F 39% 30.01 in - North 5.8 mph - N/A   Clear
4:00 AM 60.8 °F 37.4 °F 42% 30.01 in - North 5.8 mph - N/A   Clear
5:00 AM 60.8 °F 39.2 °F 45% 30.01 in - North 4.6 mph - N/A   Clear
6:00 AM 59.0 °F 41.0 °F 51% 30.04 in - Calm Calm - N/A   Clear
7:00 AM 60.8 °F 41.0 °F 48% 30.06 in - Calm Calm - N/A   Clear
8:00 AM 67 °F 42 °F 28% 30.07 in 6 mi North 3.5 mph - -  
8:00 AM 66.2 °F 41.0 °F 40% 30.06 in - North 3.5 mph - N/A   Clear
9:00 AM 73.4 °F 41.0 °F 31% 30.09 in - NE 4.6 mph - N/A   Clear
10:00 AM 77.0 °F 39.2 °F 26% 30.06 in - NNE 6.9 mph - N/A   Clear
11:00 AM 82.4 °F 42.8 °F 25% 30.06 in - NE 9.2 mph - N/A   Clear
12:00 PM 86.0 °F 41.0 °F 20% 30.01 in - NNE 10.4 mph - N/A   Clear
1:00 PM 87.8 °F 41.0 °F 19% 29.98 in - NNE 12.7 mph - N/A   Clear
2:00 PM 89 °F 42 °F 11% 29.92 in 6 mi ENE 8.1 mph - -  
2:00 PM 89.6 °F 41.0 °F 18% 29.95 in - ENE 8.1 mph - N/A   Clear
3:00 PM 91.4 °F 39.2 °F 16% 29.92 in - ENE 10.4 mph - N/A   Clear
4:00 PM 93.2 °F 39.2 °F 15% 29.92 in - NE 11.5 mph - N/A   Clear
5:00 PM 91.4 °F 39.2 °F 16% 29.89 in - NE 11.5 mph - N/A   Clear
6:00 PM 87.8 °F 39.2 °F 18% 29.92 in - ENE 9.2 mph - N/A   Clear
7:00 PM 84.2 °F 39.2 °F 20% 29.92 in - NNE 8.1 mph - N/A   Clear
8:00 PM 83 °F 38 °F 11% 29.92 in 6 mi NE 8.1 mph - -  
8:00 PM 82.4 °F 37.4 °F 20% 29.95 in - NE 8.1 mph - N/A   Clear
9:00 PM 80.6 °F 37.4 °F 21% 29.95 in - NE 8.1 mph - N/A   Clear
10:00 PM 78.8 °F 37.4 °F 23% 29.98 in - NE 8.1 mph - N/A   Clear
11:00 PM 77.0 °F 35.6 °F 22% 29.98 in - NE 6.9 mph - N/A   Clear